Zurück zum Katalog

COSMOS 791

AktivMilitärLEO
NORAD 8607·PAYLOAD·🇷🇺 Russia

Gestartet Jan 28, 1976 von Plesetsk Cosmodrome

Loading…

Nächste Überflüge (nächste 24 Stunden)

TLE

AktuellSource: Space-Track

Epoche: Sep 14, 2026, 18:54 UTC

1 08607U 76008A   26257.78753760 -.00000014  00000-0  92049-5 0  9992
2 08607  74.0587  12.8191 0053917  86.5278  79.4504 12.55046939319553

Verfolge COSMOS 791 in Echtzeit mit AllMySat

Download on the App Store